CW2313 Weather Reports


time (UTC)temp
C
wind
direction
speed
KPH
gust
KPH
rain 1hr
cm
rain 24hr
cm
rain mn
cm
humidity
%
barometer
mb
20260504200029 16 293 0.0 1.6 0.00 0.00 0.00 43 1014.3
20260504194512 16 221 0.0 1.6 0.00 0.00 0.00 42 1014.4
20260504193011 16 37 0.0 0.0 0.00 0.00 0.00 41 1014.3
20260504191554 16 92 0.0 0.0 0.00 0.00 0.00 49 1014.4
20260504190105 16 360 0.0 0.0 0.00 0.00 0.00 52 1014.4
20260504184536 16 85 0.0 0.0 0.00 0.00 0.00 52 1014.3
20260504183041 16 167 0.0 0.0 0.00 0.00 0.00 49 1014.4
20260504181519 16 89 0.0 0.0 0.00 0.00 0.00 50 1014.3
20260504180017 16 6 0.0 0.0 0.00 0.00 0.00 49 1014.3
20260504174559 16 177 0.0 0.0 0.00 0.00 0.00 52 1014.2
20260504173059 16 33 0.0 0.0 0.00 0.00 0.00 50 1014.3
20260504171541 16 343 0.0 0.0 0.00 0.00 0.00 48 1014.2
20260504081505 9 41 0.0 0.0 0.00 0.00 0.00 60 1014.8
20260504050015 12 66 0.0 0.0 0.00 0.00 0.00 52 1015.3
20260504044518 12 320 0.0 0.0 0.00 0.00 0.00 51 1015.3
20260504043103 12 37 0.0 0.0 0.00 0.00 0.00 51 1015.3
20260504041558 12 22 0.0 0.0 0.00 0.00 0.00 51 1015.3
20260504040039 12 18 0.0 0.0 0.00 0.00 0.00 51 1015.2
20260504034544 12 37 0.0 0.0 0.00 0.00 0.00 53 1015.1
20260504033021 12 41 0.0 0.0 0.00 0.00 0.00 51 1015.0
20260504031521 12 21 0.0 0.0 0.00 0.00 0.00 51 1015.0
20260504030004 13 21 0.0 0.0 0.00 0.00 0.00 49 1015.0
20260504024502 13 77 0.0 0.0 0.00 0.00 0.00 47 1015.1
20260504023043 15 27 0.0 0.0 0.00 0.00 0.00 43 1015.2
20260504021542 15 84 0.0 0.0 0.00 0.00 0.00 41 1015.3
20260504020024 15 298 0.0 1.6 0.00 0.00 0.00 40 1015.4
20260504014533 15 333 0.0 0.0 0.00 0.00 0.00 40 1015.5
20260504013006 16 306 0.0 0.0 0.00 0.00 0.00 40 1015.6
20260504011506 16 335 0.0 6.4 0.00 0.00 0.00 39 1015.7
20260504010054 16 330 0.0 1.6 0.00 0.00 0.00 40 1015.8
20260504004554 17 118 0.0 0.0 0.00 0.00 0.00 41 1016.0
20260504003057 17 25 0.0 1.6 0.00 0.00 0.00 45 1016.1
20260504001558 17 48 0.0 0.0 0.00 0.00 0.00 47 1016.2
20260504000057 17 159 0.0 0.0 0.00 0.00 0.00 46 1016.3
20260503234552 17 54 0.0 0.0 0.00 0.00 0.00 47 1016.3
20260503233052 17 44 0.0 0.0 0.00 0.00 0.00 49 1016.4
20260503231552 17 46 0.0 0.0 0.00 0.00 0.00 49 1016.5
20260503230033 17 141 0.0 0.0 0.00 0.00 0.00 48 1016.6
20260503224533 18 49 0.0 3.2 0.00 0.00 0.00 46 1016.7
20260503223016 18 339 0.0 0.0 0.00 0.00 0.00 46 1016.8
20260503221516 17 53 0.0 0.0 0.00 0.00 0.00 46 1016.9
20260503220057 18 71 0.0 0.0 0.00 0.00 0.00 45 1017.1
20260503214558 18 143 0.0 0.0 0.00 0.00 0.00 42 1017.2
20260503213039 18 221 0.0 0.0 0.00 0.00 0.00 36 1017.2
20260503211549 18 22 0.0 0.0 0.00 0.00 0.00 44 1017.4
20260503210021 18 360 0.0 0.0 0.00 0.00 0.00 42 1017.5
20260503204521 18 270 0.0 0.0 0.00 0.00 0.00 35 1017.5
20260503203002 18 92 0.0 0.0 0.00 0.00 0.00 40 1017.6
20260503201503 18 66 0.0 0.0 0.00 0.00 0.00 42 1017.6